203  
ASUS41 KAKQ 160015  
RWRAKQ  
 
REGIONAL WEATHER ROUNDUP  
NATIONAL WEATHER SERVICE WAKEFIELD VA  
800 PM EDT MON JUL 15 2019  
 
NOTE: "FAIR" INDICATES FEW OR NO CLOUDS BELOW 12,000 FEET WITH NO  
SIGNIFICANT WEATHER AND/OR S TO VISIBILITY
. * = DENOTES  
STATION MAY NOT REPORT PRECIPITATION (E.G., RAIN,SNOW,ETC.),
 
THUNDER OR FOG.  
 
VAZ042-051-052>054-056-160100-  
NORTHERN VIRGINIA  
 
CITY SKY/WX TMP DP RH WIND PRES REMARKS
 
WASH NATIONAL FAIR 87 64 46 N6 30.04R  
DULLES FAIR 85 64 49 NE6 30.04R  
FORT BELVOIR FAIR 82 72 73 CALM 30.03R  
QUANTICO FAIR 89 71 55 SW5 30.04R HX 95  
FREDERICKSBRG* FAIR 88 73 60 SW3 30.03R HX 95  
STAFFORD* FAIR 89 69 50 CALM 30.08R  
WARRENTON FAIR 86 68 55 CALM 30.05R  
CULPEPER* FAIR 85 70 60 SW3 30.05R  
MANASSAS* FAIR 86 70 58 S3 30.04R  
LEESBURG* FAIR 88 68 51 CALM 30.06R  
WINCHESTER FAIR 84 64 51 E3 30.08R  
FRONT ROYAL* FAIR 86 72 62 CALM 30.05R  
LURAY* FAIR 81 70 69 S7 30.08R  

 
 
VAZ048-049-060>072-079>083-160100-  
CENTRAL AND SOUTH CENTRAL VIRGINIA  
 
CITY SKY/WX TMP DP RH WIND PRES REMARKS
 
RICHMOND MOCLDY 85 72 65 S5 30.04S  
CHESTERFIELD* FAIR 86 71 60 SW5 30.05S  
PETERSBURG* FAIR 80 74 83 CALM 30.06R  
HANOVER FAIR 84 72 67 CALM 30.05S  
TAPPAHANNOCK* FAIR 80 75 84 CALM 30.05S  
QUINTON* FAIR 83 72 69 CALM 30.04S  
CHARLOTTSVILLE FAIR 79 68 69 SW5 30.07S  
GORDONSVILLE* FAIR 83 74 73 SW3 30.06R  
ORANGE* FAIR 82 72 69 SW5 30.05S  
LOUISA* FAIR 80 76 88 SW5 30.10S FOG  
BUMPASS* FAIR 82 74 77 CALM 30.05S  
FARMVILLE* LGT RAIN 75 73 91 CALM 30.08R  
CREWE* FAIR 79 79 100 CALM 30.06R  
FORT PICKETT* FAIR 83 74 74 CALM 30.07R  
CHASE CITY* FAIR 84 73 70 CALM 30.08R  
CLARKSVILLE* FAIR 86 73 66 CALM 30.06R  
SOUTH HILL* FAIR N/A N/A N/A CALM 30.12R  
LAWRENCEVILLE* FAIR 81 74 80 CALM 30.07R  
EMPORIA* FAIR 82 75 78 CALM 30.06S  

 
 
VAZ088>098-160100-  
SOUTHEAST VIRGINIA  
 
CITY SKY/WX TMP DP RH WIND PRES REMARKS
 
NORFOLK FAIR 83 70 64 NE6 30.05R  
VIRGINIA BEACH FAIR 80 72 76 E5 30.04R  
NORFOLK NAVAL FAIR 84 70 62 E6 30.06R  
WEST POINT* FAIR 82 73 74 CALM 30.06R  
SALUDA* FAIR 83 69 62 CALM 30.05R  
NEWPORT NEWS FAIR 83 71 67 E3 30.05R  
LANGLEY AFB NOT AVBL  
FORT EUSTIS CLEAR 85 67 54 CALM 30.02S  
WILLIAMSBURG* FAIR 82 73 74 CALM 30.05S  
HR EXEC AP* FAIR 77 72 84 CALM 30.06R  
FRANKLIN* FAIR 83 71 65 CALM 30.06R  
US460-WAKEFLD FAIR 82 73 74 CALM 30.05R  

 
 
VAZ020-022-025-037-045-160100-  
WEST CENTRAL AND SOUTHWEST VIRGINIA  
 
CITY SKY/WX TMP DP RH WIND PRES REMARKS
 
STAUNTON* MOCLDY 75 69 81 S7 30.14R  
WAYNESBORO* FAIR 73 73 99 CALM 30.15R  
HOT SPRINGS VA FAIR 72 72 100 CALM 30.29R  
LYNCHBURG FAIR 79 69 71 CALM 30.12R  
DANVILLE FAIR 82 74 76 CALM 30.08R  
SOUTH BOSTON* FAIR 86 70 58 CALM 30.07R  
MARTINSVILLE FAIR 82 79 89 CALM 30.13R  
ROANOKE MOCLDY 75 68 78 NW10 30.18R THUNDER  
BLACKSBURG MOCLDY 71 69 92 E8 30.24R  
DUBLIN* LGT RAIN 73 66 78 S8G17 30.21R  
MARION* FAIR 75 70 85 W5 30.25R  
HILLSVILLE* FAIR 76 68 76 NW3 30.22R  
RICHLANDS* FAIR 77 65 67 CALM 30.23R  
WISE* FAIR 77 64 65 NW5 30.24R  
ABINGDON* FAIR 80 67 65 W5 30.19R  

 
 
MDZ021>025-VAZ099-100-160100-  
SOUTHERN MARYLAND AND THE DELMARVA PENINSULA  
 
CITY SKY/WX TMP DP RH WIND PRES REMARKS
 
PATUXENT RIVER FAIR 83 70 64 S5 30.04R  
BAY BRIDGE APT FAIR 84 64 51 CALM 30.05R  
LEONARDTOWN FAIR 81 70 69 CALM 30.06R  
DOVER CLEAR 82 60 46 W3 30.04R  
GEORGETOWN FAIR 81 65 58 S5 30.05R  
EASTON PTCLDY 84 64 51 CALM 30.08R  
CAMBRIDGE CLEAR 81 70 69 CALM 30.04S  
SALISBURY FAIR 80 70 71 SE8 30.04R  
TANGIER FAIR 84 64 51 CALM 30.04S  
OCEAN CITY FAIR 78 69 73 SE5 30.06R  
WALLOPS ISLAND FAIR 80 69 69 S8 30.05R  
ACCOMACK* FAIR 80 68 66 CALM 30.05R  

 
 
NCZ012>017-030>032-160100-  
NORTH CENTRAL AND EASTERN NORTH CAROLINA  
 
CITY SKY/WX TMP DP RH WIND PRES REMARKS
 
ROANOKE RAPIDS FAIR 81 79 94 CALM 30.06R  
RALEIGH MOCLDY 88 70 55 S5 30.06R  
ELIZABETH CITY FAIR 83 72 69 E5 30.05R  
AHOSKIE* FAIR 81 76 84 CALM 30.05R  
EDENTON* N/A 86 76 72 E6 30.06R HAZE HX 96  
CURRITUCK* FAIR 82 73 76 MISG 30.06R  
KILL DEVIL HLS FAIR 81 73 76 CALM 30.05R  
MANTEO FAIR 82 72 71 CALM 30.07R  
CAPE HATTERAS FAIR 85 76 74 CALM 30.05R  
TARBORO* FAIR 88 71 56 CALM N/A  
GOLDSBORO FAIR 90 73 57 E5 30.03R HX 97  
WASHINGTON FAIR 87 74 65 E6 30.05R HX 96  
GREENVILLE FAIR 90 72 55 NE6 30.06R HX 96  
NEW BERN FAIR 85 72 65 S5 30.05R  
WILMINGTON FAIR 88 71 57 S5 30.04R  

 
 
VAZ048-160100-  
ELSEWHERE  
 
CITY SKY/WX TMP DP RH WIND PRES REMARKS
 
HARRISBURG PA FAIR 83 67 58 CALM 30.03S  
BALTIMORE MOCLDY 84 63 49 NW3 30.03R  
ANNAPOLIS FAIR 86 67 52 S5 30.04R  
ANDREWS AFB FAIR 81 69 65 E6 30.04R  
PHILADELPHIA MOCLDY 85 57 38 NW8 30.03R  
HENDERSON NC FAIR 84 69 60 CALM 30.07R  
GREENSBORO CLOUDY 86 69 56 NW7 30.09R  
ROCKY MOUNT FAIR 86 74 67 CALM 30.05R  

 
 
VAZ100-160100-  
MARINE  
 
STATION/POSITION TIME TEMP WIND PRES WAVE SWELL
 
AIR SEA DIR/SP/G HT/PER HT/PER  
(UTC) (F) (DEG/KT/KT) (MB) (FT/S) (FT/S)  
BRANDYWINE LGT 2312 1017.6S  
CAPE MAY NJ 2330 77 75 180/ 5/ 7 1016.9R  
LEWES DE 2330 81 80 180/ 3/ 7 1017.6R  
15NM E FENWICK I 2350 77 77 160/ 4/ 6 1017.4R 2/ 9 2/ 9  
OCEAN-CITY-INLET 2330 80 78 170/ 5/ 6 1018.4R  
WACHAPREAGUE VA 2330 81 88 150/ 5/ 7 1017.2R  
THOMAS POINT MD 0000 83 83 150/ 4/ 4 1018.3R  
GOOSES REEF MD 2348 84 180/ 8/ 8 1018.1R  
COVE POINT MD 2330 83 170/ 7/ 8 1017.6R  
SOLOMONS ISLAND 2330 84 86 160/ 7/ 8 1016.6R  
BISHOPS HEAD MD 2324 86 89 230/ 2/ 2 1017.6R  
PINEY POINT MD 2324 230/ 1/ 2 N/A  
CAMBRIDGE MD 2330 87 87 1016.9R  
LEWISETTA VA 2324 89 88 CALM 1017.2  
RAPPAHANNOCK LGT 2324 1018.2R  
YORK RVR RNG VA 2330 85 150/ 6/ 6 1018.0R  
YORKTOWN VA 2330 86 85 100/ 5/ 6 1017.1R  
JAMESTOWN VA 2354 87 88 1017.7R  
DOMINION TERM VA 2330 84 60/ 6/ 7 1017.5R  
KIPTOPEKE VA 2324 85 140/ 6/ 7 N/A  
CAPE HENRY VA 2324 82 80/ 5/ 6 1017.3  
WILLOUBY STN VA 2330 83 90/ 6/ 7 1016.8R  
S CRANEY ISL VA 2330 86 40/ 2/ 4 1017.1R  
CAPE HENRY BUOY 0000 81 N/A 1/ 9  
1ST LANDING BUOY 2350 82 110/ 6/ 8 1017.0R  
64NM E OF VA BCH 2350 80 82 60/ 6/ 8 1017.8R 2/10 2/10  
DUCK PIER NC 2324 86 82 110/ 4/ 5 1017.1R  
44100 DUCK FRF 0000 83 N/A 1/10  
44056 DUCK FRF 0000 82 N/A 1/11  
OREGON INLET NC 2324 83 87 50/ 6/ 7 1017.5R  
HATTERAS NC 2324 87 84 170/ 1/ 3 1017.7  
DIAMOND SHLS NC 2350 86 84 210/ 6/ 8 1017.2R 2/ 9 2/ 9  
CAPE LOOKOUT NC 2300 85 180/ 8/ 9 1017.0R  

 
 
 
CLICK HERE TO GO TO PREVIOUS BULLETINS.

The Nexlab VA Page
The Nexlab NC Page
The Nexlab MD Page Main Text Page